Location: Équennes
(49.7375°N, 1.9622°E)
Time: 01:51:09
(UTC+00:00)

Cosmos 2369 - Pass Details

Date: 28 January 2023
Orbit: 837 x 857 km, 71.0° (Epoch: 30 March)

Event Time Altitude Azimuth Distance (km) Brightness Sun altitude
Rises 18:21:00 0° 211° (SSW) 3,379 7.4 -16.3°
Reaches altitude 10° 18:23:26 10° 212° (SSW) 2,450 6.7 -16.6°
Maximum altitude 18:29:04 79° 300° (WNW) 862 3.8 -17.5°
Enters shadow 18:34:28 12° 27° (NNE) 2,365 5.7 -18.4°
